Satellite: FALCON
Catalog number: 30776
Epoch time:      09176.79940574
Element set:     598
Inclination:      035.4341 deg
RA of node:       047.1578 deg
Eccentricity:    0.0001895
Arg of perigee:   326.8877 deg
Mean anomaly:     033.1725 deg
Mean motion:   15.03259636 rev/day
Decay rate:       1.35e-06 rev/day^2
Epoch rev:           12639
Checksum:              329

Satellite: MAST
Catalog number: 31126
Epoch time:      09175.60683167
Element set:    0626
Inclination:      097.9878 deg
RA of node:       230.0731 deg
Eccentricity:    0.0093481
Arg of perigee:   256.9784 deg
Mean anomaly:     102.0982 deg
Mean motion:   14.53502988 rev/day
Decay rate:        9.1e-07 rev/day^2
Epoch rev:           11611
Checksum:              313

Satellite: CAPE1
Catalog number: 31130
Epoch time:      09176.82442862
Element set:     632
Inclination:      097.9885 deg
RA of node:       229.3960 deg
Eccentricity:    0.0101343
Arg of perigee:   258.2616 deg
Mean anomaly:     100.7188 deg
Mean motion:   14.52066525 rev/day
Decay rate:       1.09e-06 rev/day^2
Epoch rev:           11594
Checksum:              298

Satellite: COMPASS
Catalog number: 32787
Epoch time:      09176.81388957
Element set:     392
Inclination:      097.9420 deg
RA of node:       240.5656 deg
Eccentricity:    0.0016079
Arg of perigee:   008.8095 deg
Mean anomaly:     351.3396 deg
Mean motion:   14.81617948 rev/day
Decay rate:       3.37e-06 rev/day^2
Epoch rev:            6272
Checksum:              343

Satellite: AAUSAT2
Catalog number: 32788
Epoch time:      09175.63305491
Element set:    0397
Inclination:      097.9405 deg
RA of node:       239.4526 deg
Eccentricity:    0.0015832
Arg of perigee:   013.9132 deg
Mean anomaly:     346.2550 deg
Mean motion:   14.81740836 rev/day
Decay rate:       3.24e-06 rev/day^2
Epoch rev:           06255
Checksum:              308

Satellite: DO-64
Catalog number: 32789
Epoch time:      09176.73525739
Element set:     403
Inclination:      097.9472 deg
RA of node:       240.7144 deg
Eccentricity:    0.0016099
Arg of perigee:   008.4001 deg
Mean anomaly:     351.7477 deg
Mean motion:   14.81728343 rev/day
Decay rate:       2.23e-06 rev/day^2
Epoch rev:            6271
Checksum:              316

Satellite: CO-66
Catalog number: 32791
Epoch time:      09176.85771567
Element set:     385
Inclination:      097.9446 deg
RA of node:       240.6417 deg
Eccentricity:    0.0016252
Arg of perigee:   007.2815 deg
Mean anomaly:     352.8608 deg
Mean motion:   14.81445218 rev/day
Decay rate:       -2.2e-07 rev/day^2
Epoch rev:            6269
Checksum:              330

Satellite: RS-30
Catalog number: 32953
Epoch time:      09175.75582124
Element set:    0339
Inclination:      082.5011 deg
RA of node:       251.9048 deg
Eccentricity:    0.0019640
Arg of perigee:   158.5884 deg
Mean anomaly:     201.6028 deg
Mean motion:   12.43001863 rev/day
Decay rate:        1.0e-07 rev/day^2
Epoch rev:           04933
Checksum:              279

Satellite: TACSAT-3
Catalog number: 35001
Epoch time:      09175.93379220
Element set:    0039
Inclination:      040.4546 deg
RA of node:       194.3312 deg
Eccentricity:    0.0025115
Arg of perigee:   222.1467 deg
Mean anomaly:     137.7416 deg
Mean motion:   15.38854406 rev/day
Decay rate:       8.78e-06 rev/day^2
Epoch rev:           00554
Checksum:              285

Satellite: PHARMSAT
Catalog number: 35002
Epoch time:      09175.46165344
Element set:    0039
Inclination:      040.4677 deg
RA of node:       196.9365 deg
Eccentricity:    0.0027767
Arg of perigee:   222.7881 deg
Mean anomaly:     137.0772 deg
Mean motion:   15.39623457 rev/day
Decay rate:       7.88e-06 rev/day^2
Epoch rev:           00546
Checksum:              322

Satellite: HAWKSAT1
Catalog number: 35003
Epoch time:      09174.48276175
Element set:    0038
Inclination:      040.4696 deg
RA of node:       202.7207 deg
Eccentricity:    0.0028682
Arg of perigee:   217.3307 deg
Mean anomaly:     142.5515 deg
Mean motion:   15.39876872 rev/day
Decay rate:       5.76e-06 rev/day^2
Epoch rev:           00532
Checksum:              298

Satellite: CP6
Catalog number: 35004
Epoch time:      09176.16548937
Element set:      29
Inclination:      040.4601 deg
RA of node:       192.5592 deg
Eccentricity:    0.0028371
Arg of perigee:   231.4161 deg
Mean anomaly:     128.4108 deg
Mean motion:   15.40085915 rev/day
Decay rate:      1.922e-05 rev/day^2
Epoch rev:             557
Checksum:              283

Satellite: AEROCUB3
Catalog number: 35005
Epoch time:      09175.71597130
Element set:    0030
Inclination:      040.4761 deg
RA of node:       195.3626 deg
Eccentricity:    0.0028388
Arg of perigee:   225.3310 deg
Mean anomaly:     134.5197 deg
Mean motion:   15.39903107 rev/day
Decay rate:      1.954e-05 rev/day^2
Epoch rev:           00550
Checksum:              278

/EX



_______________________________________________
Via the Keps mailing list courtesy of AMSAT-NA
http://amsat.org/mailman/listinfo/keps

--- ViaMAIL!/WC v1.60d
 * Origin: Chowdanet (401-724-4410) telnet://chowdanet.com  (1:323/120)